Back to catalog

CMS 03

AliveCommunicationsGEO
NORAD 66311·PAYLOAD·🇮🇳 India

Launched Nov 2, 2025 from Satish Dhawan Space Centre

Loading…

TLE

FreshSource: Space-Track

Epoch: Sep 14, 2026, 14:09 UTC

1 66311U 25249B   26257.58974774 -.00000085  00000-0  00000-0 0  9996
2 66311   0.0531 267.3053 0000761 221.1687 151.3704  1.00272381  3249

Track CMS 03 in real time with AllMySat

Download on the App Store